Погода в Мардине

Турция     37°18′59″N   40°45′02″E
темп.,
°C
ветер,
м/с
пор.,
м/с
влажн.,
%
обл.,
%
осадки,
мм/ч
давл.,
гПа
погр.,
м
7 мая, пт
пт700:00+20сз2338100 0.0 100829
03:00+17ссз81361100 0.1 1008369
06:00+16ссв5870100 0.2 1007241
09:00+20с665328 0.2 1009725
12:00+24ссв754111 0.0 10091838
15:00+25с77360 0.0 10082058
18:00+23с68380 0.0 10091339
21:00+19с47510 0.0 1011111
8 мая, сб
сб800:00+19с510475 0.0 1011149
03:00+18с49510 0.0 1011129
06:00+17с46530 0.0 101298
09:00+25с44312 0.0 1013775
12:00+28ссз33212 0.0 10122008
15:00+30ссз441814 0.0 10102271
18:00+29с1225100 0.0 100959
21:00+22св223478 0.0 101113
9 мая, вс
вс900:00+22с2233100 0.0 101011
03:00+21с33325 0.0 101014
06:00+20ссв333710 0.0 101024
09:00+28ссз2325100 0.0 1010829
12:00+31зсз242198 0.0 10092119
15:00+31юз6111875 0.0 10073559
18:00+30зюз610205 0.0 1005717
21:00+19ссв4660100 0.0 1009129
10 мая, пн
пн1000:00+20с1217370 0.1 1008437
03:00+16ссз1219340 0.1 1009365
06:00+14с714435 0.0 1011341
09:00+20с58300 0.0 1011517
12:00+25ссз76200 0.0 10101099
15:00+26ссз67150 0.0 10081474
18:00+23ссз671989 0.0 1008613
21:00+18с4421100 0.0 101050
11 мая, вт
вт1100:00+17с613200 0.0 1010239
03:00+17с612220 0.0 1008221
06:00+16с45260 0.0 100979
09:00+22с33190 0.0 1009523
12:00+27сз12155 0.0 10081749
15:00+29юз23150 0.0 10062542
18:00+28ююв22204 0.0 1005160
21:00+21ссв33313 0.0 100723